Content
SEND FEEDBACK

Daily
Averages
Monthly
Summary
United States of America

FAYETTEVILLE, TENNESSEE


Home > North America > United States > Tennessee
Elevation: 213 meters     Latitude: 35 10N     Longitude: 086 33W

WEATHER
 
SELECT A DAY
Number of Records: 298,317;   Date Range: 4/22/02 - 8/30/14
 
SHARE

PRINT THIS DATA

[ ← Previous Day ]
WEATHER ALMANAC - 9 JUNE, 2014
[ Next Day → ]
[ °F ]   °C
Weather ElementAverageHighLow
Temperature21.6 °C28 °C (4:35 pm)18 °C (12:35 am)
Dewpoint16.6 °C18 °C (8:35 am)15 °C (3:35 pm)
Humidity75.1 %94 % (7:15 am)45 % (4:35 pm)
Barometer1012.9 hPa1014.9 hPa (9:55 pm)1011.2 hPa (5:55 pm)
Wind Speed7.6 km/h42.6 km/h (9:55 pm)
Wind Gust57.5 km/h (9:55 pm)
Weather ElementAverage
Visibility15 km
Wind DirectionESE (127.4 °)

Weather ElementTotal
Precipitation36.83 mm
Cooling Degree Days4.7 (Base 18.3)
Growing Degree Days13 (Base 10)
Averaged from 69 records on 9 June, 2014
WEATHER CONDITIONS BREAKOUT
WIND DIRECTION BREAKOUT
WEATHER BY HOUR - 9 JUNE, 2014
[ °F ]   °C
Local TimeTemperatureDewpointHumidityBarometerVisibilityWind DirectionWind SpeedGust SpeedPrecipitationEventsConditions
12:35 AM18 °C16 °C88 %1013.5 hPa16.1 kmCalmClear
12:55 AM18 °C16 °C88 %1013.5 hPa16.1 kmCalmClear
1:15 AM18 °C16 °C88 %1013.5 hPa16.1 kmCalmClear
1:35 AM18 °C16 °C88 %1013.5 hPa16.1 kmCalmClear
1:55 AM18 °C16 °C88 %1013.5 hPa16.1 kmCalmClear
2:15 AM18 °C16 °C88 %1013.2 hPa11.3 kmCalmClear
2:35 AM18 °C16 °C88 %1012.9 hPa11.3 kmCalmClear
2:55 AM18 °C16 °C88 %1012.9 hPa16.1 kmCalmScattered Clouds
3:15 AM18 °C16 °C88 %1012.5 hPa16.1 kmCalmScattered Clouds
3:35 AM18 °C16 °C88 %1012.5 hPa16.1 kmCalmClear
3:55 AM18 °C16 °C88 %1012.5 hPa16.1 kmCalmScattered Clouds
4:15 AM18 °C16 °C88 %1012.5 hPa16.1 kmCalmMostly Cloudy
4:35 AM18 °C16 °C88 %1012.5 hPa16.1 kmCalmThunderstormMostly Cloudy
4:55 AM18 °C16 °C88 %1012.5 hPa16.1 kmCalmThunderstormScattered Clouds
5:15 AM19 °C17 °C88 %1012.5 hPa16.1 kmNE (40°)5.6 km/hMostly Cloudy
5:35 AM19 °C17 °C88 %1012.5 hPa16.1 kmCalmThunderstormThunderstorm
5:55 AM19 °C16 °C83 %1013.2 hPa6.4 kmNNW (340°)11.1 km/h33.3 km/h2.29 mmRain-ThunderstormHeavy Thunderstorms and Rain
6:15 AM18 °C16 °C88 %1013.5 hPa16.1 kmNNW (330°)7.4 km/h0.51 mmRain-ThunderstormLight Thunderstorms and Rain
6:35 AM18 °C16 °C88 %1014.6 hPa4.8 kmCalm1.52 mmRain-ThunderstormHeavy Thunderstorms and Rain
6:55 AM18 °C16 °C88 %1013.5 hPa6.4 kmESE (120°)7.4 km/h3.3 mmRain-ThunderstormThunderstorms and Rain
7:15 AM18 °C17 °C94 %1012.5 hPa11.3 kmESE (110°)16.7 km/h0.25 mmRainLight Rain
7:35 AM18 °C17 °C94 %1012.2 hPa11.3 kmESE (120°)11.1 km/h0.25 mmClear
7:55 AM19 °C17 °C88 %1012.5 hPa16.1 kmSSE (150°)9.3 km/h0.25 mmScattered Clouds
8:15 AM19 °C17 °C88 %1013.5 hPa16.1 kmSouth (190°)11.1 km/hScattered Clouds
8:35 AM20 °C18 °C88 %1013.9 hPa16.1 kmSW (220°)7.4 km/hScattered Clouds
8:55 AM20 °C18 °C88 %1013.9 hPa16.1 kmSSW (200°)18.5 km/hMostly Cloudy
9:15 AM20 °C18 °C88 %1013.5 hPa16.1 kmSouth (170°)14.8 km/hMostly Cloudy
9:35 AM21 °C18 °C83 %1013.5 hPa16.1 kmSouth (170°)9.3 km/hScattered Clouds
9:55 AM21 °C18 °C83 %1013.5 hPa16.1 kmSouth (190°)11.1 km/hScattered Clouds
10:15 AM22 °C18 °C78 %1013.9 hPa16.1 kmSW (220°)11.1 km/hScattered Clouds
10:35 AM22 °C17 °C73 %1013.9 hPa16.1 kmSW (220°)14.8 km/hScattered Clouds
10:55 AM22 °C17 °C73 %1013.9 hPa16.1 kmWSW (250°)16.7 km/hScattered Clouds
11:15 AM23 °C17 °C69 %1013.9 hPa16.1 kmWSW (240°)18.5 km/h25.9 km/hClear
11:35 AM23 °C17 °C69 %1014.2 hPa16.1 kmSW (220°)14.8 km/hScattered Clouds
11:55 AM23 °C17 °C69 %1014.6 hPa16.1 kmWSW (240°)24.1 km/h35.2 km/hMostly Cloudy
12:15 PM23 °C17 °C69 %1013.9 hPa16.1 kmWest (260°)11.1 km/hScattered Clouds
12:35 PM23 °C17 °C69 %1013.2 hPa16.1 kmSW (230°)11.1 km/hScattered Clouds
12:55 PM25 °C17 °C61 %1013.2 hPa16.1 kmSW (220°)16.7 km/hClear
1:15 PM25 °C16 °C57 %1013.2 hPa16.1 kmSW (230°)16.7 km/hClear
1:35 PM25 °C16 °C57 %1013.2 hPa16.1 kmWest (260°)13 km/hClear
2:35 PM26 °C16 °C54 %1012.9 hPa16.1 kmSouth (190°)5.6 km/hScattered Clouds
2:55 PM26 °C16 °C54 %1012.5 hPa16.1 kmSW (230°)7.4 km/hScattered Clouds
3:15 PM26 °C16 °C54 %1012.2 hPa16.1 kmSouth (180°)11.1 km/hScattered Clouds
3:35 PM27 °C15 °C48 %1012.2 hPa16.1 kmSW (220°)7.4 km/hMostly Cloudy
3:55 PM27 °C15 °C48 %1012.2 hPa16.1 kmCalmScattered Clouds
4:15 PM27 °C15 °C48 %1011.9 hPa16.1 kmCalmClear
4:35 PM28 °C15 °C45 %1011.5 hPa16.1 kmSW (220°)5.6 km/hClear
4:55 PM27 °C15 °C48 %1011.5 hPa16.1 kmSouth (190°)5.6 km/hClear
5:20 PM28 °C16 °C48 %1011.5 hPa16.1 kmSE (140°)7.4 km/hClear
5:35 PM28 °C16 °C48 %1011.5 hPa16.1 kmSE (130°)9.3 km/hScattered Clouds
5:55 PM27 °C16 °C51 %1011.2 hPa16.1 kmESE (120°)11.1 km/hScattered Clouds
6:15 PM27 °C17 °C54 %1011.2 hPa16.1 kmESE (120°)5.6 km/hClear
6:35 PM27 °C16 °C51 %1011.5 hPa16.1 kmSE (140°)5.6 km/hClear
6:55 PM26 °C17 °C57 %1011.5 hPa16.1 kmSE (140°)7.4 km/hClear
7:15 PM25 °C18 °C65 %1011.5 hPa16.1 kmSE (140°)5.6 km/hClear
7:35 PM25 °C18 °C65 %1011.5 hPa16.1 kmESE (120°)7.4 km/hClear
7:55 PM24 °C18 °C69 %1011.5 hPa16.1 kmSE (130°)7.4 km/hClear
8:15 PM23 °C18 °C73 %1011.9 hPa16.1 kmCalmClear
8:35 PM23 °C18 °C73 %1011.9 hPa16.1 kmSE (130°)5.6 km/hClear
8:55 PM23 °C18 °C73 %1011.9 hPa16.1 kmESE (120°)5.6 km/hClear
9:15 PM23 °C18 °C73 %1011.9 hPa16.1 kmCalmClear
9:35 PM23 °C18 °C73 %1012.2 hPa16.1 kmSE (140°)5.6 km/hClear
9:55 PM22 °C17 °C73 %1014.9 hPa16.1 kmWest (270°)42.6 km/h57.5 km/hScattered Clouds
10:15 PM19 °C16 °C83 %1013.9 hPa6.4 kmWSW (240°)7.4 km/h25.9 km/h7.87 mmRainHeavy Rain
10:35 PM18 °C16 °C88 %1014.6 hPa16.1 kmESE (120°)7.4 km/h8.89 mmRainLight Rain
10:55 PM18 °C17 °C94 %1013.9 hPa11.3 kmSE (130°)7.4 km/h9.14 mmRainLight Rain
11:15 PM18 °C17 °C94 %1013.5 hPa11.3 kmCalm0.25 mmRainRain
11:35 PM18 °C17 °C94 %1013.5 hPa11.3 kmSSE (150°)7.4 km/h0.51 mmRainRain
11:55 PM18 °C17 °C94 %1013.5 hPa8 kmSE (140°)9.3 km/h1.78 mmRain-ThunderstormThunderstorms and Rain
Hourly data recorded from KMDQ, located 0 kilometers away from Fayetteville, Tennessee







STORIES FROM OUR PARTNERS